Flag for Namibia Weather past 2 weeks in Swakopmund, Namibia

Now
72 °F

Mild.


Feels Like: 73 °F
Forecast: 66 / 80 °F
Wind: 21 mph from East

Location: Walvis Bay

Current Time: Jul 29, 2014 at 4:30:03 AM

Latest Report: Jul 29, 2014 at 3:00 AM


Visibility: N/A

Pressure: 30.01 "Hg

Humidity: 11%

Dew point: 14 °F

Location of SwakopmundLocation

Historic Weather in Swakopmund — Graph

°F

Swakopmund temperature yesterday

Maximum temperature yesterday: 95 °F (at 2:00 PM)
Minimum temperature yesterday: 48 °F (at 2:00 AM)
Average temperature yesterday: 73 °F

Past Weeks' High & Low Weather Summary

 TemperatureHumidityPressure
High95 °F (Jul 28, 2:00 PM)100% (Jul 15, 7:00 AM)30.27 "Hg (Jul 15, 7:00 AM)
Low39 °F (Jul 19, 6:00 AM)7% (Jul 28, 10:00 AM)29.98 "Hg (Jul 23, 3:00 PM)
Average56 °F66%30.13 "Hg
* Reported Jul 14 3:00 AM — Jul 29 3:00 AM, Swakopmund, Weather by CustomWeather, © 2014

Note: Actual official high and low records may vary slightly from our data, if they occured in-between our weather recording intervals... More about our weather records

Advertising

Swakopmund weather history for previous 24 hours

 ConditionsComfort  
Time TempWeatherWind HumidityBarometerVisibility
3:00 AM
Jul 29
72 °FMild.21 mph11%30.01 "HgN/A
2:00 AM73 °FMild.21 mph12%30.01 "HgN/A
1:00 AM70 °FMild.15 mph12%30.01 "HgN/A
12:00 AM73 °FMild.21 mph11%30.01 "HgN/A
11:00 PM
Jul 28
70 °FMild.16 mph13%30.04 "HgN/A
10:00 PM72 °FMild.15 mph13%30.04 "HgN/A
9:00 PM72 °FMild.14 mph13%30.04 "HgN/A
8:00 PM72 °FMild.14 mph14%30.01 "HgN/A
7:00 PM73 °FClear.3 mph14%30.01 "Hg10 mi
6:00 PM79 °FPleasantly warm.8 mph11%30.01 "HgN/A
5:00 PM86 °FPleasantly warm.13 mph10%30.01 "HgN/A
4:00 PM88 °FSunny.13 mph10%29.98 "Hg10 mi
3:00 PM91 °FSunny.13 mph10%29.98 "Hg10 mi
2:00 PM95 °FSunny.2 mph7%30.01 "Hg10 mi
1:00 PM91 °FSunny.5 mph8%30.04 "Hg10 mi
12:00 PM90 °FHot.12 mph7%30.07 "HgN/A
11:00 AM86 °FSunny.16 mph8%30.09 "Hg10 mi
10:00 AM82 °FSunny.18 mph7%30.12 "Hg10 mi
9:00 AM79 °FSunny.16 mph8%30.12 "Hg10 mi
8:00 AM72 °FSunny.22 mph11%30.07 "Hg10 mi
7:00 AM64 °FSunny.18 mph13%30.07 "Hg10 mi
6:00 AM64 °FMild.16 mph12%30.07 "HgN/A
5:00 AM66 °FMild.16 mph11%30.07 "HgN/A
4:00 AM61 °FRefreshingly cool.8 mph13%30.07 "HgN/A
Weather by CustomWeather, © 2014

See weather overviewHow to use our weather pages